Location: Hillsman's Observatory
(38.8566°N, 93.9398°W)
Time: 15:28:08
(UTC-06:00)

OTV 5 (USA 277) - Visible Passes

Search period start: 24 February 2018 00:00
Search period end: 06 March 2018 00:00
Orbit: 404 x 417 km, 43.0° (Epoch: 07 September)

Date Brightness Start Highest point End Pass type
(mag) Time Alt. Az. Time Alt. Az. Time Alt. Az.
24 Feb ? 04:14:44 10° E 04:14:44 10° E 04:14:45 10° E visible
24 Feb ? 05:47:29 28° WNW 05:48:56 51° NNW 05:52:09 10° ENE visible
25 Feb ? 04:58:49 39° NE 04:58:49 39° NE 05:01:05 10° ENE visible
26 Feb ? 05:42:52 25° NW 05:44:16 39° N 05:47:23 10° ENE visible
27 Feb ? 04:54:08 32° NE 04:54:08 32° NE 04:56:17 10° ENE visible
28 Feb ? 05:38:08 24° NW 05:39:38 39° N 05:42:45 10° ENE visible
01 Mar ? 04:49:23 30° NE 04:49:23 30° NE 04:51:34 10° ENE visible
02 Mar ? 05:33:26 26° NW 05:34:58 52° NNE 05:38:11 10° E visible
03 Mar ? 04:44:46 33° NE 04:44:46 33° NE 04:47:00 10° E visible
04 Mar ? 05:28:55 34° WNW 05:30:11 86° SSW 05:33:29 10° ESE visible
05 Mar ? 04:40:23 33° E 04:40:23 33° E 04:42:23 10° ESE visible
05 Mar ? 06:13:29 10° W 06:16:14 24° SSW 06:18:58 10° SSE visible
